Change the Weather History Date:

Wednesday, February 1, 2012

  Actual Average Record
Temperature  
Mean Temperature 30 °F -  
Max Temperature 39 °F 16 °F 42 °F (1993)
Min Temperature 21 °F -7 °F -34 °F (2013)
Degree Days  
Heating Degree Days 35    
Moisture  
Dew Point 26 °F    
Average Humidity 88    
Maximum Humidity 100    
Minimum Humidity 70    
Precipitation  
Precipitation 0.00 in - - ()
Sea Level Pressure  
Sea Level Pressure 29.94 in    
Wind  
Wind Speed 8 mph (SSW)    
Max Wind Speed 15 mph    
Max Gust Speed -    
Visibility 5 miles    
Events Fog , Snow    
Averages and records for this station are not official NWS values.
T = Trace of Precipitation, MM = Missing Value Source: NWS Daily Summary

Daily Weather History Graph

Daily Weather History Graph

Search for Another Location

Airport or City:

Trip Planner

Search our weather history database for the weather conditions in past years. The results will help you decide how hot, cold, wet, or windy it might be!

Date:

Astronomy

Feb. 01, 2012 Rise Set
Actual Time 7:50 AM CST 5:23 PM CST
Civil Twilight 7:17 AM CST 5:56 PM CST
Nautical Twilight 6:40 AM CST 6:33 PM CST
Astronomical Twilight 6:04 AM CST 7:09 PM CST
Moon 11:45 AM CST (2/1) 2:43 AM CST (2/1)
Length of Visible Light 10h 39m
Length of Day
9h 33m
Waxing Gibbous, 65% of the Moon is Illuminated
Feb 1
Waxing Gibbous
Feb 7
Full
Feb 14
Last Quarter
Feb 21
New
Feb 29
First Quarter

Hourly Weather History & Observations

Time (CST) Temp. Windchill Dew Point Humidity Pressure Visibility Wind Dir Wind Speed Gust Speed Precip Events Conditions
12:15 AM 26.6 °F 18.2 °F 26.6 °F 100% 29.90 in 2.0 mi SW 8.1 mph - N/A   Overcast
12:36 AM 26.6 °F 17.5 °F 26.6 °F 100% 29.90 in 2.0 mi SSW 9.2 mph - N/A   Overcast
12:55 AM 26.6 °F 17.5 °F 26.6 °F 100% 29.91 in 0.8 mi SSW 9.2 mph - N/A   Overcast
1:15 AM 26.6 °F 18.2 °F 24.8 °F 93% 29.91 in 0.2 mi SW 8.1 mph - N/A Fog Light Freezing Fog
1:35 AM 26.6 °F 18.2 °F 24.8 °F 93% 29.92 in 0.2 mi SW 8.1 mph - N/A Fog Light Freezing Fog
1:55 AM 26.6 °F 19.1 °F 24.8 °F 93% 29.92 in 0.2 mi SW 6.9 mph - N/A Fog Light Freezing Fog
2:15 AM 26.6 °F 16.8 °F 24.8 °F 93% 29.94 in 0.2 mi SSW 10.4 mph - N/A Snow Light Snow
2:35 AM 24.8 °F 15.3 °F 24.8 °F 100% 29.94 in 0.2 mi SSW 9.2 mph - N/A Fog Light Freezing Fog
3:15 AM 24.8 °F 15.3 °F 23.0 °F 93% 29.94 in 0.2 mi SSW 9.2 mph - N/A Snow Light Snow
3:35 AM 24.8 °F 16.1 °F 21.2 °F 86% 29.94 in 0.2 mi SSW 8.1 mph - N/A Snow Light Snow
3:55 AM 23.0 °F 14.7 °F 21.2 °F 93% 29.94 in 0.2 mi SSW 6.9 mph - N/A Fog Light Freezing Fog
4:15 AM 23.0 °F 14.7 °F 21.2 °F 93% 29.94 in 0.2 mi South 6.9 mph - N/A Fog Light Freezing Fog
4:35 AM 23.0 °F 15.8 °F 21.2 °F 93% 29.94 in 0.2 mi South 5.8 mph - N/A Snow Light Snow
5:15 AM 23.0 °F 15.8 °F 21.2 °F 93% 29.94 in 0.2 mi South 5.8 mph - N/A Fog Light Freezing Fog
5:35 AM 21.2 °F 14.9 °F 21.2 °F 100% 29.94 in 0.2 mi South 4.6 mph - N/A Fog Light Freezing Fog
5:55 AM 21.2 °F 12.6 °F 21.2 °F 100% 29.95 in 0.2 mi South 6.9 mph - N/A Snow Light Snow
6:15 AM 23.0 °F 15.8 °F 21.2 °F 93% 29.95 in 0.2 mi South 5.8 mph - N/A Fog Light Freezing Fog
6:35 AM 23.0 °F 15.8 °F 21.2 °F 93% 29.95 in 0.2 mi South 5.8 mph - N/A Snow Light Snow
6:55 AM 23.0 °F 14.7 °F 21.2 °F 93% 29.95 in 0.2 mi South 6.9 mph - N/A Fog Light Freezing Fog
7:15 AM 23.0 °F 17.0 °F 21.2 °F 93% 29.95 in 0.5 mi South 4.6 mph - N/A Fog Light Freezing Fog
7:35 AM 21.2 °F - 21.2 °F 100% 29.96 in 0.5 mi Calm Calm - N/A Fog Light Freezing Fog
7:55 AM 21.2 °F - 21.2 °F 100% 29.96 in 1.8 mi Calm Calm - N/A   Mostly Cloudy
8:15 AM 21.2 °F - 19.4 °F 93% 29.96 in 1.8 mi Calm Calm - N/A   Mist
8:35 AM 21.2 °F 14.9 °F 19.4 °F 93% 29.96 in 2.0 mi South 4.6 mph - N/A   Clear
8:55 AM 21.2 °F - 21.2 °F 100% 29.97 in 2.5 mi Calm Calm - N/A   Clear
9:15 AM 21.2 °F 16.4 °F 21.2 °F 100% 29.97 in 2.0 mi South 3.5 mph - N/A   Clear
9:36 AM 24.8 °F - 24.8 °F 100% 29.96 in 4.0 mi Calm Calm - N/A   Scattered Clouds
9:55 AM 26.6 °F 21.2 °F 24.8 °F 93% 29.96 in 4.0 mi South 4.6 mph - N/A   Scattered Clouds
10:15 AM 28.4 °F - 26.6 °F 93% 29.96 in 4.0 mi Calm Calm - N/A   Scattered Clouds
10:35 AM 30.2 °F 24.3 °F 28.4 °F 93% 29.96 in 5.0 mi South 5.8 mph - N/A   Clear
11:15 AM 33.8 °F 26.4 °F 28.4 °F 81% 29.96 in 7.0 mi South 9.2 mph - N/A   Clear
11:36 AM 35.6 °F 29.2 °F 30.2 °F 81% 29.95 in 10.0 mi South 8.1 mph - N/A   Clear
12:15 PM 37.4 °F 30.3 °F 30.2 °F 75% 29.94 in 10.0 mi South 10.4 mph - N/A   Clear
12:36 PM 39.2 °F 33.0 °F 30.2 °F 70% 29.93 in 10.0 mi South 9.2 mph - N/A   Clear
12:55 PM 39.2 °F 32.0 °F 30.2 °F 70% 29.93 in 10.0 mi South 11.5 mph - N/A   Scattered Clouds
1:15 PM 37.4 °F 29.3 °F 30.2 °F 75% 29.93 in 10.0 mi South 12.7 mph - N/A   Scattered Clouds
1:36 PM 37.4 °F 28.5 °F 30.2 °F 75% 29.92 in 10.0 mi South 15.0 mph - N/A   Scattered Clouds
1:55 PM 37.4 °F 28.9 °F 30.2 °F 75% 29.91 in 10.0 mi South 13.8 mph - N/A   Scattered Clouds
2:15 PM 37.4 °F 28.9 °F 30.2 °F 75% 29.91 in 10.0 mi South 13.8 mph - N/A   Scattered Clouds
2:35 PM 37.4 °F 28.5 °F 30.2 °F 75% 29.92 in 10.0 mi SSW 15.0 mph - N/A   Scattered Clouds
2:55 PM 35.6 °F 26.2 °F 30.2 °F 81% 29.92 in 10.0 mi SSW 15.0 mph - N/A   Scattered Clouds
3:15 PM 35.6 °F 26.2 °F 30.2 °F 81% 29.92 in 7.0 mi South 15.0 mph - N/A   Scattered Clouds
3:35 PM 37.4 °F 30.3 °F 30.2 °F 75% 29.93 in 10.0 mi SSW 10.4 mph - N/A   Mostly Cloudy
3:55 PM 37.4 °F 29.3 °F 30.2 °F 75% 29.94 in 10.0 mi SSW 12.7 mph - N/A   Scattered Clouds
4:15 PM 35.6 °F 27.5 °F 30.2 °F 81% 29.94 in 10.0 mi SSW 11.5 mph - N/A   Clear
4:35 PM 35.6 °F 29.2 °F 28.4 °F 75% 29.95 in 10.0 mi SSW 8.1 mph - N/A   Clear
4:55 PM 32.0 °F 25.6 °F 26.6 °F 80% 29.95 in 10.0 mi SSW 6.9 mph - N/A   Clear
5:15 PM 32.0 °F 25.6 °F 28.4 °F 87% 29.94 in 10.0 mi South 6.9 mph - N/A   Clear
5:35 PM 30.2 °F 23.4 °F 26.6 °F 86% 29.95 in 10.0 mi South 6.9 mph - N/A   Clear
5:55 PM 28.4 °F 20.4 °F 26.6 °F 93% 29.95 in 10.0 mi South 8.1 mph - N/A   Clear
6:15 PM 28.4 °F 21.2 °F 26.6 °F 93% 29.97 in 10.0 mi SSW 6.9 mph - N/A   Clear
6:35 PM 28.4 °F 21.2 °F 24.8 °F 86% 29.97 in 10.0 mi SSW 6.9 mph - N/A   Clear
6:55 PM 26.6 °F - 24.8 °F 93% 29.97 in 10.0 mi Calm Calm - N/A   Clear
7:15 PM 26.6 °F - 24.8 °F 93% 29.97 in 10.0 mi Calm Calm - N/A   Scattered Clouds
7:35 PM 26.6 °F - 24.8 °F 93% 29.98 in 10.0 mi Calm Calm - N/A   Scattered Clouds
7:55 PM 26.6 °F 20.0 °F 24.8 °F 93% 29.98 in 10.0 mi SSW 5.8 mph - N/A   Clear
8:15 PM 24.8 °F - 24.8 °F 100% 29.98 in 10.0 mi Calm Calm - N/A   Clear
8:35 PM 24.8 °F 16.1 °F 24.8 °F 100% 29.98 in 10.0 mi SSW 8.1 mph - N/A   Clear
8:55 PM 24.8 °F 17.9 °F 23.0 °F 93% 29.99 in 7.0 mi SW 5.8 mph - N/A   Clear
9:15 PM 24.8 °F 17.9 °F 23.0 °F 93% 30.00 in 7.0 mi SW 5.8 mph - N/A   Clear
9:35 PM 24.8 °F 17.9 °F 21.2 °F 86% 30.00 in 7.0 mi SW 5.8 mph - N/A   Clear
9:55 PM 23.0 °F 17.0 °F 21.2 °F 93% 30.01 in 7.0 mi SW 4.6 mph - N/A   Clear
10:15 PM 23.0 °F - 21.2 °F 93% 30.01 in 5.0 mi Calm Calm - N/A   Clear
10:35 PM 19.4 °F - 17.6 °F 93% 30.01 in 1.2 mi Calm Calm - N/A   Mist
10:55 PM 19.4 °F - 17.6 °F 93% 30.02 in 0.2 mi Calm Calm - N/A Fog Light Freezing Fog
11:15 PM 17.6 °F - 15.8 °F 93% 30.02 in 0.2 mi Calm Calm - N/A Fog Light Freezing Fog
11:35 PM 15.8 °F - 12.2 °F 86% 30.03 in 0.2 mi Calm Calm - N/A Fog Light Freezing Fog
11:55 PM 14.0 °F - 12.2 °F 93% 30.04 in 0.2 mi Calm Calm - N/A Fog Light Freezing Fog